Wind_Speed
21 20 18 17 17 18 20 20 18 13 9 7 5 4 3 5 10 11 9 9 9 10 12 13 13 11 10 9 8 10 11 11 12 13 13 13 13 14 14 14 14 14 15 15 16 16 16 16 16 16 16 16 17 17 18 18 18 18 19 19 19 17 15 14 14 13 14 14 15 15 16 17 18 19 19 20 20 21 21 22 22 22 22 22 22
19 18 16 16 16 16 17 18 17 14 9 7 6 5 4 7 11 13 12 10 10 11 13 13 13 11 10 9 9 11 11 13 14 14 15 14 14 13 13 14 14 13 14 15 16 16 16 16 17 17 17 17 17 18 18 18 18 18 18 18 18 17 16 15 15 15 15 15 15 16 16 17 18 19 20 20 20 21 21 21 21 21 21 21 22
16 15 14 14 14 15 14 14 14 13 11 9 8 7 7 9 11 12 11 10 10 12 14 14 13 11 11 10 11 11 12 14 16 16 15 15 15 14 12 12 12 13 13 14 15 16 17 17 17 17 17 17 18 18 19 18 18 18 18 19 19 19 17 17 16 17 17 17 17 17 17 17 18 19 20 20 21 21 20 20 20 20 20 20 21
12 12 12 12 14 14 13 12 11 11 11 11 11 10 11 12 12 12 11 11 12 13 14 14 13 12 12 12 12 13 14 15 17 16 15 15 16 15 12 10 10 11 12 12 14 16 17 17 17 17 17 18 18 19 19 19 19 18 18 19 20 20 19 19 18 19 19 18 17 17 17 18 19 19 20 20 21 20 20 20 20 20 20 20 20
11 10 10 11 12 12 12 12 11 11 11 12 13 13 14 15 14 14 13 13 14 15 16 15 14 13 13 13 14 14 15 16 16 16 14 15 17 15 12 10 9 10 10 11 13 15 16 17 18 18 18 18 18 19 20 20 20 20 20 20 20 21 20 20 20 21 20 19 18 18 18 18 19 19 19 20 20 20 19 20 20 20 20 20 19
9 8 8 9 10 9 9 10 11 12 13 13 14 14 15 15 15 15 16 16 16 16 16 15 14 14 14 14 15 15 16 16 16 15 14 16 17 15 13 11 10 10 10 11 13 15 16 17 18 18 19 19 19 19 20 20 21 21 21 21 21 22 22 22 22 22 22 20 19 19 19 18 18 18 19 20 20 19 19 19 19 19 20 20 20
8 8 7 8 8 7 7 8 10 13 13 13 13 14 14 14 14 15 16 15 15 15 16 15 14 14 14 15 15 16 17 17 15 14 15 16 16 15 14 13 12 11 11 11 12 14 16 18 19 19 19 20 20 20 20 21 21 21 21 22 22 22 22 23 22 23 22 21 20 20 20 19 19 18 19 20 20 20 20 19 18 19 19 20 20
7 8 9 9 9 8 8 9 11 12 12 12 12 13 13 14 14 14 15 15 15 16 16 15 14 14 15 16 16 16 18 17 16 15 15 17 17 15 15 14 13 13 14 15 14 14 16 18 19 19 20 20 21 21 21 21 21 21 21 21 21 21 22 22 22 22 22 21 20 20 20 20 20 20 20 20 20 20 21 20 19 19 19 20 21
9 9 10 11 11 11 10 11 12 12 12 13 13 14 15 15 15 15 16 16 17 17 16 16 15 16 17 17 17 17 18 18 16 15 15 17 18 18 17 16 16 18 20 20 17 15 16 17 19 20 20 20 21 22 22 22 22 22 22 21 21 21 21 21 21 20 20 20 20 19 19 19 20 20 20 20 21 21 22 22 21 21 21 21 22
13 13 13 13 14 15 14 13 12 12 13 15 16 17 17 18 18 19 20 19 18 18 17 16 16 17 18 19 19 19 19 18 17 16 15 16 17 19 19 20 20 22 23 21 18 16 16 17 18 19 20 21 22 23 23 23 23 23 23 22 22 22 21 21 21 20 19 19 19 18 18 19 20 20 20 20 21 21 22 23 23 23 22 22 22
15 16 16 16 16 18 18 16 15 14 14 16 19 19 20 21 21 22 22 20 19 18 17 18 18 19 20 21 22 21 20 19 17 16 16 15 15 17 19 21 22 22 21 20 17 16 16 17 18 18 19 20 21 23 24 25 24 24 24 23 23 23 22 21 21 20 19 19 18 18 18 19 19 20 20 19 20 21 22 23 23 22 21 21 23
17 18 18 18 19 21 21 19 18 17 15 16 19 21 23 25 24 23 22 21 19 19 19 20 20 20 21 22 23 23 22 21 18 16 16 16 16 16 18 20 21 21 19 17 15 15 15 16 17 18 18 19 20 22 24 25 25 25 25 25 24 23 22 22 21 20 20 19 19 18 18 18 19 19 19 19 19 20 21 22 23 23 22 22 23
18 19 20 20 21 23 24 23 21 20 18 18 21 24 26 27 25 22 21 21 20 21 21 21 21 22 23 24 25 25 23 22 19 17 17 17 17 16 17 19 19 18 17 15 14 14 14 15 16 17 18 18 19 20 22 24 25 25 25 25 25 24 23 22 21 20 20 19 19 18 18 18 18 18 18 18 18 19 20 21 22 23 23 23 23
22 22 23 23 24 26 27 26 24 23 22 21 24 26 27 25 21 19 20 21 21 21 22 21 21 22 23 24 24 24 23 21 18 17 17 17 17 16 17 18 16 16 15 15 14 13 13 14 15 16 17 17 18 20 21 22 23 24 24 24 24 23 22 21 21 20 20 19 18 18 18 18 18 17 17 17 17 18 19 20 21 21 21 22 22
27 27 27 27 27 28 32 29 24 24 24 25 28 26 24 22 21 23 23 22 21 21 20 20 20 21 21 21 21 22 21 19 18 18 18 19 18 17 17 17 16 15 15 14 14 13 13 13 14 15 16 16 17 19 20 21 22 22 22 22 22 21 20 20 19 19 19 18 18 17 17 17 17 17 17 17 17 17 17 18 19 20 20 20 20
31 31 31 31 28 30 35 31 22 22 25 29 30 26 22 22 22 22 18 15 16 16 16 17 18 18 17 16 16 16 15 16 17 19 21 22 20 18 18 17 15 15 14 13 13 13 13 13 13 14 15 16 17 18 19 20 21 21 21 21 20 19 19 19 18 18 18 17 17 17 17 16 16 16 16 16 16 16 16 17 17 18 18 19 19
32 31 33 34 30 28 31 32 22 21 27 30 29 24 21 22 21 18 16 14 13 12 11 12 12 11 10 8 9 10 11 12 15 18 20 21 19 19 19 18 17 16 15 15 14 13 13 13 14 14 15 16 16 17 18 19 19 20 20 20 19 19 18 18 18 18 17 17 16 16 16 16 16 16 15 15 15 16 16 15 16 16 17 17 18
31 32 33 34 31 27 29 36 30 24 25 28 26 21 17 15 14 15 16 14 12 11 11 9 8 7 8 8 8 10 10 11 13 16 18 18 18 19 19 18 18 18 17 16 16 14 14 14 14 14 15 17 18 18 18 19 19 20 20 20 19 18 18 17 17 17 17 17 16 16 16 16 16 16 15 15 14 14 15 15 15 15 15 15 16
29 31 30 29 31 29 29 35 35 29 28 27 26 24 19 16 16 16 13 9 8 10 10 9 9 9 10 10 9 9 10 11 12 14 15 16 15 15 15 16 17 17 17 18 17 15 14 13 13 14 15 17 18 19 20 20 20 20 20 20 19 18 17 16 16 16 16 16 16 16 16 16 16 16 16 15 15 15 14 14 14 14 14 14 14
27 28 29 28 31 31 30 33 36 34 31 29 28 27 24 21 20 18 14 10 9 9 8 7 9 10 10 10 9 10 10 11 13 13 13 14 12 11 12 15 16 16 17 17 15 13 12 11 11 12 13 15 17 18 19 20 20 20 19 19 18 18 17 16 15 15 15 15 15 15 15 16 16 16 16 16 16 16 15 15 14 14 14 14 14
27 27 29 29 31 32 30 31 33 31 28 28 27 26 24 21 19 16 13 10 8 8 7 8 9 10 10 11 11 11 11 12 13 13 13 13 13 12 13 15 17 18 19 17 15 14 13 13 13 13 12 13 15 17 17 18 18 18 17 17 17 17 16 15 15 15 15 15 15 14 14 15 15 16 16 16 16 16 16 17 16 16 15 15 14
26 26 29 29 28 28 27 26 26 23 22 23 24 23 21 19 17 15 13 12 10 8 8 9 10 11 11 12 12 13 13 13 14 15 15 15 15 15 15 16 18 20 20 19 17 16 15 16 16 15 15 15 16 17 18 18 17 16 16 15 15 15 15 14 14 14 14 15 15 15 15 14 15 15 15 15 15 15 16 16 16 16 16 16 16
25 25 26 24 22 22 22 22 21 20 20 22 23 22 20 17 17 16 16 15 14 13 12 11 11 12 12 12 12 13 13 14 15 15 16 16 16 16 16 17 19 20 21 21 19 17 16 16 17 17 17 17 17 18 18 19 18 18 17 15 14 14 14 15 15 15 15 15 15 15 16 16 16 16 15 15 15 16 16 16 16 16 16 16 16
23 24 23 22 20 20 19 19 20 20 21 21 22 21 20 18 18 18 18 18 17 16 16 15 14 14 13 13 12 11 12 14 16 16 15 15 16 16 17 18 20 21 21 20 19 17 16 16 17 18 18 17 18 19 19 19 19 18 17 16 16 16 16 17 17 17 17 17 17 17 17 17 17 17 17 17 17 17 17 17 17 17 17 17 17
21 22 22 21 19 18 17 17 18 20 21 22 22 22 21 20 20 19 19 19 18 18 18 17 17 16 15 14 14 13 14 15 16 17 17 17 18 17 17 19 21 21 19 19 19 18 17 19 19 19 19 18 19 20 20 20 20 19 19 18 19 19 19 19 18 19 19 20 20 19 19 18 18 19 19 19 19 19 19 19 19 19 19 19 19
19 20 19 18 16 16 16 16 16 17 19 20 21 22 22 22 21 21 21 21 21 20 20 19 18 18 18 18 18 18 18 18 18 19 20 20 21 20 19 19 20 20 18 19 20 20 20 22 21 18 18 18 18 19 21 21 21 21 20 20 21 22 21 20 19 19 19 20 21 22 21 20 20 20 20 21 21 22 22 22 21 21 22 22 22
18 19 19 19 19 18 18 18 18 18 19 20 21 21 22 22 22 23 23 23 23 23 23 23 22 22 22 23 23 23 23 23 23 23 23 23 24 23 21 21 21 22 23 24 24 23 23 23 22 19 19 19 19 19 20 21 21 21 20 21 22 22 21 20 20 20 20 21 22 23 24 23 23 23 23 24 23 24 24 24 25 25 25 25 25
20 21 22 23 22 20 20 20 21 21 22 22 23 23 24 24 25 25 25 25 26 26 27 27 26 27 27 28 28 28 28 27 27 27 26 26 26 26 26 25 25 26 28 28 27 26 24 24 23 22 22 23 23 22 22 23 22 22 22 22 23 23 23 23 23 22 22 23 24 25 25 25 24 25 26 27 28 27 26 26 27 28 28 29 29
24 24 24 24 23 21 21 21 21 22 24 25 25 26 26 27 27 28 28 28 29 29 30 30 30 30 30 31 31 31 31 31 30 30 30 30 30 29 29 30 29 28 29 30 30 28 26 25 24 23 23 25 25 26 27 27 26 26 26 27 28 29 30 30 29 29 29 30 30 29 28 27 27 28 29 29 30 31 30 29 29 29 30 31 32
27 26 26 26 26 25 25 25 25 26 27 28 29 29 30 30 31 31 31 32 32 33 33 33 33 34 34 34 35 35 34 35 35 34 34 34 33 33 32 32 31 31 30 30 31 30 28 28 26 25 25 27 27 29 29 29 30 30 31 32 34 35 35 35 34 33 33 34 34 34 32 31 31 33 34 34 34 34 34 34 34 33 32 33 34
29 29 29 29 30 30 31 31 31 31 31 32 33 33 33 34 34 34 34 35 35 36 37 37 38 38 39 39 39 39 39 39 39 38 38 37 36 36 35 34 34 34 33 32 33 33 32 31 30 29 29 30 31 32 33 34 35 35 35 35 36 37 37 36 35 35 34 34 34 34 35 35 35 36 37 38 39 38 38 38 37 37 36 36 37
31 31 31 32 33 34 35 35 35 35 35 35 36 36 36 36 37 37 38 38 39 40 40 41 42 42 43 43 43 43 43 42 42 41 41 40 39 38 38 37 36 35 35 35 36 36 34 33 32 32 33 33 34 35 37 37 37 36 36 36 36 36 35 34 33 33 33 33 33 33 34 35 36 37 37 37 38 40 40 40 40 40 40 40 40
35 35 35 36 37 38 38 39 39 39 39 39 39 39 40 40 41 41 42 43 43 44 44 45 45 45 44 43 43 43 43 43 43 42 41 40 40 39 39 39 38 38 38 37 37 38 37 37 37 36 36 36 36 37 38 38 37 36 35 35 35 34 34 33 33 33 32 32 32 32 33 34 35 36 37 38 39 40 41 42 42 43 44 44 44
38 39 39 40 41 41 42 42 42 42 42 42 42 43 44 45 46 46 46 47 47 47 47 46 46 45 43 42 42 43 42 41 41 42 42 41 41 40 39 38 38 38 39 38 38 38 40 40 39 38 37 36 36 37 37 37 36 36 35 35 35 34 34 34 34 33 33 33 33 33 34 35 36 37 38 39 40 42 43 43 43 44 45 46 46
44 44 44 44 44 44 45 45 45 45 45 45 46 46 45 46 47 47 47 47 48 48 47 45 44 43 44 44 44 43 40 39 38 38 39 40 40 39 39 39 38 39 40 40 40 42 43 42 40 38 36 35 36 36 37 37 37 37 38 38 37 36 36 36 36 35 35 34 34 34 35 37 38 40 40 41 42 42 43 43 44 44 45 46 46
45 47 47 47 47 47 48 48 49 49 49 49 48 46 43 42 43 44 44 46 47 48 48 47 46 47 48 47 45 42 40 38 36 35 35 36 36 37 38 40 40 41 43 44 44 45 45 44 41 39 36 35 36 37 38 39 39 40 40 40 40 39 38 38 38 38 37 37 36 36 37 38 39 40 41 42 43 43 44 44 44 45 45 46 47
45 48 49 50 50 51 51 52 52 52 52 51 50 48 46 45 44 44 44 44 45 46 47 47 47 48 47 46 44 43 42 40 36 34 35 35 35 36 37 38 39 41 43 44 43 43 43 42 41 39 37 37 37 38 39 40 41 41 41 41 41 40 39 40 40 40 40 40 39 39 39 40 40 41 42 42 43 44 44 45 45 46 46 47 47
50 52 53 53 53 54 55 55 55 55 55 54 53 52 51 51 51 50 48 47 46 46 46 46 47 47 47 47 47 46 46 44 41 39 38 39 39 39 38 37 37 38 39 41 42 42 42 41 41 40 39 40 41 42 43 43 44 44 43 43 42 42 41 41 41 42 42 42 42 42 42 42 42 42 43 43 43 44 45 45 46 47 47 47 48
54 55 56 56 57 58 59 59 59 59 59 59 58 58 58 58 58 58 57 56 55 54 54 55 55 55 55 54 54 52 50 48 48 46 44 43 42 42 42 42 40 39 39 40 41 42 42 42 42 43 44 44 45 45 46 46 46 45 44 44 44 43 43 42 42 42 42 43 44 45 45 45 44 43 43 44 44 45 45 46 46 47 47 48 48
56 57 58 58 59 60 61 61 62 62 63 63 63 62 62 62 63 63 63 63 63 63 63 63 62 62 61 60 59 57 55 53 53 53 51 49 48 47 47 47 47 47 46 46 46 46 46 47 48 49 49 49 48 47 46 46 45 45 44 44 44 44 43 42 42 41 43 45 47 48 48 47 46 45 44 44 44 45 46 46 47 47 47 48 48
55 56 57 59 59 60 61 61 62 62 63 63 63 63 63 63 64 64 65 65 65 65 65 64 63 62 61 60 59 58 58 57 58 58 59 59 58 55 53 52 52 52 52 51 50 50 50 50 51 51 51 50 50 49 47 46 45 45 44 44 45 44 43 42 43 45 47 48 49 49 48 47 46 45 44 44 45 45 45 46 47 47 47 47 48
56 56 57 58 59 60 61 61 62 62 62 62 62 63 63 64 64 65 65 65 65 65 65 64 64 63 62 61 59 58 58 57 57 59 60 61 61 60 58 57 57 56 55 53 51 49 49 49 47 46 45 46 47 47 46 45 44 44 44 45 45 45 44 45 48 50 50 49 47 46 46 45 45 45 45 45 45 45 45 46 46 46 46 47 47
56 57 58 58 59 60 60 61 62 62 63 63 63 63 64 64 64 65 66 66 65 65 65 64 64 63 62 62 60 59 58 57 56 56 57 57 57 57 57 57 57 56 55 53 51 50 49 48 46 43 43 45 46 47 47 45 44 44 45 46 46 46 47 51 54 52 49 47 46 45 44 44 45 45 45 45 45 45 45 45 45 45 46 46 47
56 56 57 57 58 58 58 58 59 60 61 62 62 63 63 64 64 65 66 66 66 66 66 65 65 65 64 64 63 62 60 59 58 56 55 54 53 52 52 54 55 54 52 50 49 48 49 48 47 46 46 47 48 49 49 48 47 47 47 47 48 50 54 57 55 51 49 48 46 45 44 44 45 45 45 45 45 45 45 45 45 46 46 46 46
54 55 55 55 56 56 56 56 57 59 60 62 63 64 65 65 66 66 67 66 66 66 66 65 65 64 64 63 63 62 62 61 60 59 58 57 55 53 52 53 55 56 55 53 51 50 49 50 49 49 49 50 51 51 52 51 50 49 49 50 53 56 58 57 54 51 49 48 47 46 45 45 45 45 46 46 46 46 45 45 46 46 46 46 45
53 54 54 55 56 57 57 58 60 62 63 65 66 67 67 67 67 68 68 68 68 68 68 67 66 66 65 64 63 62 62 61 60 60 59 59 58 57 55 54 55 57 58 59 59 57 54 53 54 54 55 55 54 53 54 53 53 53 54 56 58 58 57 55 53 51 50 49 48 47 46 45 45 45 46 46 46 46 46 46 46 46 45 45 44
54 55 56 57 58 60 62 63 64 64 64 64 64 64 64 65 65 65 66 67 68 68 69 69 69 68 68 67 67 66 65 63 62 61 60 59 59 59 58 57 56 56 57 59 60 60 59 59 59 60 60 60 59 58 58 58 58 58 59 58 57 55 54 52 51 50 49 48 47 46 45 45 44 44 45 46 46 46 46 45 45 44 43 43 42
57 58 60 62 64 66 66 66 64 63 62 62 62 62 62 62 63 63 64 64 65 65 66 66 67 67 68 68 68 68 67 67 66 64 63 62 61 61 60 59 59 59 59 59 60 61 61 62 62 63 63 63 62 62 61 60 59 58 57 55 54 53 52 51 49 49 48 47 46 45 44 44 44 44 44 45 45 44 43 43 42 42 41 40 40
62 64 65 66 66 65 63 62 61 61 61 61 61 62 62 62 63 63 64 64 64 64 64 64 64 65 65 65 65 65 66 66 66 66 65 64 63 63 62 61 61 61 62 62 62 61 62 62 62 63 63 63 63 62 60 58 56 55 54 53 52 51 50 49 48 48 47 46 45 44 43 43 43 42 42 42 41 41 40 40 39 38 38 38 38
62 62 62 61 60 59 59 59 59 60 60 60 61 62 62 63 63 64 64 64 64 65 65 64 64 64 64 65 65 65 64 64 64 65 64 63 62 61 61 60 59 60 61 61 61 60 60 59 60 62 61 61 61 60 58 55 54 53 52 51 50 49 48 48 47 46 45 44 43 42 42 42 42 41 41 40 39 38 38 37 36 36 36 36 36
55 55 55 55 55 55 56 56 56 57 57 57 58 58 59 59 59 60 60 61 61 62 62 63 63 64 64 64 65 65 65 65 64 64 63 63 61 59 58 57 56 56 56 56 55 55 56 56 57 58 59 59 59 57 54 52 51 50 49 48 47 47 46 45 44 44 43 42 41 40 40 41 40 40 40 39 38 37 36 35 34 33 33 33 34
Wind_Direction
255 259 261 261 258 258 260 259 258 253 239 231 233 247 242 203 198 206 227 250 248 239 241 243 244 244 245 249 260 270 275 279 282 284 285 284 284 284 284 284 284 283 281 278 274 272 271 270 271 272 272 271 270 267 264 261 259 256 255 258 260 261 264 263 261 261 259 260 263 263 262 259 256 255 254 252 252 253 253 253 255 258 260 262 262
254 258 258 254 250 251 252 251 251 252 244 233 227 227 222 207 208 220 234 241 243 244 244 243 244 247 251 259 269 276 278 281 282 283 283 282 281 278 280 284 285 285 283 280 277 273 271 270 268 269 269 270 270 269 267 265 262 259 257 261 265 264 265 267 266 265 265 263 263 263 262 260 258 257 257 256 256 256 256 257 258 260 262 264 265
246 248 248 242 237 238 242 245 246 247 247 242 235 227 219 216 219 227 234 239 245 248 247 246 246 251 258 266 273 277 279 281 282 282 280 279 278 275 273 278 284 288 289 287 283 278 273 269 267 267 266 267 267 267 267 266 264 260 258 261 264 265 265 267 267 267 268 266 263 263 263 262 260 258 258 258 258 259 259 261 262 262 264 267 267
226 230 231 227 229 233 237 241 240 240 243 244 243 236 228 224 227 232 236 240 245 248 249 249 250 253 259 266 272 275 278 280 282 281 276 272 274 274 270 270 277 284 289 292 290 285 278 272 269 267 266 265 265 266 266 266 264 261 258 258 260 263 265 267 269 269 269 267 266 266 266 264 262 261 260 260 260 262 264 264 264 263 265 268 268
203 215 219 218 226 232 234 235 234 234 236 240 241 238 234 231 231 234 235 236 239 245 248 250 251 254 259 265 271 275 278 279 280 280 274 269 270 272 270 269 274 279 285 292 294 291 285 278 272 269 267 265 264 264 265 265 265 264 262 260 261 264 268 270 272 273 273 271 272 272 270 266 263 263 263 263 264 265 266 266 265 265 265 267 267
195 209 212 216 223 223 222 224 226 229 231 234 237 238 238 237 234 233 233 235 239 243 248 249 251 255 260 266 270 274 278 280 281 279 270 267 271 273 271 270 271 274 280 289 295 294 290 283 277 272 268 265 264 263 264 265 265 265 265 265 266 268 271 273 274 275 276 276 276 276 274 270 266 265 265 265 267 267 267 266 266 266 265 266 267
200 209 215 228 235 223 211 211 219 227 234 237 239 241 245 247 244 241 242 243 245 248 251 252 254 260 266 269 272 275 278 282 285 281 268 262 268 272 272 274 275 278 283 287 290 293 291 286 279 273 270 266 264 262 261 262 263 264 265 265 267 267 269 271 273 274 275 276 276 275 274 272 269 268 267 268 270 270 269 267 265 264 264 265 265
223 225 231 245 252 242 225 217 218 225 236 243 245 247 252 256 254 252 252 250 248 249 251 254 258 263 268 270 271 274 276 279 285 286 274 263 264 269 271 271 275 285 294 294 288 285 287 286 281 275 271 269 266 263 260 259 260 261 263 265 266 266 267 268 269 270 271 271 272 271 271 271 271 271 270 272 273 273 272 270 266 265 263 262 262
259 253 252 254 255 254 243 228 224 228 236 243 247 249 252 253 252 250 247 243 243 245 247 251 257 261 264 265 267 270 272 274 280 286 281 270 265 268 272 270 272 284 295 295 287 279 281 283 281 275 271 270 268 265 262 259 258 259 260 263 264 265 265 265 264 264 265 265 266 268 270 271 272 272 272 272 273 274 273 272 270 268 266 264 263
272 269 267 263 259 260 256 245 240 238 237 238 241 244 246 247 247 246 242 238 238 242 245 248 252 255 257 259 261 264 268 271 276 281 283 278 270 268 271 271 273 284 291 290 283 278 278 280 278 274 270 269 269 267 265 261 259 258 258 259 260 261 261 261 261 260 260 261 262 264 266 269 271 272 272 271 272 272 272 274 275 272 269 265 263
272 270 269 267 264 263 261 258 258 254 243 237 238 240 242 243 243 244 241 237 238 240 243 247 249 253 255 258 261 262 266 271 275 278 280 279 274 269 271 273 277 284 285 281 277 275 276 278 276 273 269 267 268 268 267 264 261 259 258 258 258 258 258 258 259 259 259 260 261 262 263 265 269 272 272 270 270 271 271 273 274 274 272 268 265
271 272 273 271 269 268 265 264 264 262 253 242 239 239 239 239 239 237 232 231 236 241 244 248 250 255 259 262 265 267 269 272 274 277 277 274 272 269 271 276 280 280 275 272 274 272 273 275 276 275 272 270 268 268 267 266 264 262 260 259 258 257 257 257 258 259 258 259 260 261 262 265 268 271 272 271 270 270 271 272 273 273 274 273 270
272 273 272 270 270 270 269 270 270 266 260 250 243 240 240 239 236 230 228 231 238 245 247 251 256 260 264 266 268 269 268 268 269 272 274 271 270 269 271 275 277 273 266 267 275 276 272 273 274 276 276 275 274 271 269 268 266 264 262 260 259 259 258 259 259 260 260 260 260 261 262 264 267 270 272 272 271 271 272 273 274 275 275 275 272
273 271 268 265 263 263 263 267 270 269 261 250 245 243 243 242 232 225 235 241 243 247 250 254 259 262 264 266 268 268 265 264 264 264 269 273 274 271 271 272 268 261 260 266 275 279 277 274 273 273 274 275 276 275 272 270 267 266 264 262 262 261 261 261 262 262 262 261 261 261 262 263 265 268 270 272 272 272 272 272 273 275 275 275 273
276 274 272 269 267 266 260 254 259 265 259 251 247 245 244 243 235 233 243 250 248 250 254 256 260 262 262 263 266 268 265 261 261 262 268 277 277 270 269 270 262 254 257 264 271 278 281 279 275 272 271 271 272 272 271 269 267 265 263 262 262 262 262 263 263 264 264 264 263 263 263 264 265 267 268 270 271 271 272 272 273 273 273 273 272
275 273 272 271 274 274 258 241 243 254 248 247 247 244 244 245 242 241 245 251 250 251 257 259 260 261 262 263 266 270 266 259 259 262 269 276 273 265 265 267 257 250 254 261 268 275 280 281 280 275 272 270 269 270 269 268 266 264 263 263 262 263 263 264 265 266 266 267 267 267 265 265 264 265 266 268 268 268 270 271 273 273 273 272 271
266 264 266 265 266 273 251 230 242 255 238 240 244 243 247 247 247 252 252 252 253 258 266 266 260 253 253 263 268 270 269 262 261 262 267 271 267 262 262 256 250 250 255 262 269 275 279 281 281 279 277 274 271 270 269 268 267 266 265 265 265 266 266 267 268 269 270 271 271 272 271 270 268 268 268 269 270 270 270 271 272 274 274 274 273
258 256 262 258 255 266 249 233 250 261 238 237 243 244 254 252 253 263 258 251 253 262 266 260 255 250 252 263 264 262 264 266 266 264 262 263 262 261 256 249 250 254 256 262 269 274 281 283 280 280 282 280 278 274 271 269 267 266 265 264 265 266 267 269 271 273 274 275 275 275 274 274 273 272 272 273 274 274 274 274 274 274 274 274 273
254 254 260 256 250 258 255 245 251 251 237 239 242 245 258 260 254 258 259 254 251 259 262 252 255 265 265 265 261 258 262 266 271 270 263 260 261 258 251 250 258 259 256 262 267 273 280 280 277 278 281 281 280 277 274 271 268 266 264 263 263 264 267 270 274 277 279 280 280 279 277 276 275 274 274 274 274 275 277 278 279 279 277 276 273
251 250 255 258 254 256 260 255 248 239 237 244 243 242 251 257 254 253 257 262 256 256 261 255 257 263 266 269 267 266 267 266 271 272 263 255 255 259 259 262 267 267 265 268 269 270 270 266 265 271 276 278 278 276 274 272 270 268 266 265 264 264 265 268 271 275 278 280 281 281 280 279 278 277 276 276 276 276 276 277 280 282 284 283 281
248 247 250 254 256 257 259 254 242 234 239 244 240 237 245 253 256 255 257 262 260 255 256 258 261 262 265 269 267 267 268 265 264 262 254 250 254 263 267 268 270 270 271 271 269 267 263 257 257 261 266 271 272 270 268 266 266 266 267 267 267 265 265 265 266 269 272 274 275 277 278 278 278 278 277 276 276 277 277 276 277 279 281 284 285
246 246 249 252 253 255 255 249 239 235 235 235 235 238 244 250 253 254 257 263 264 262 259 260 261 262 263 263 263 265 266 264 261 257 255 257 263 267 267 267 268 270 272 271 270 267 262 260 259 259 261 265 265 263 261 259 258 257 259 262 265 268 268 266 266 267 269 270 270 272 274 276 277 277 277 277 276 275 275 275 276 276 277 279 280
246 246 250 254 255 255 254 248 241 236 230 228 231 235 238 243 247 251 257 261 263 264 264 263 259 257 257 257 258 262 263 264 263 262 261 263 267 271 271 268 267 269 272 273 272 268 263 262 263 263 262 262 259 258 258 256 253 251 251 252 257 264 268 269 269 267 266 266 266 267 270 273 275 276 277 277 278 278 277 276 275 274 273 273 273
248 250 254 257 258 258 257 250 242 236 230 226 225 226 230 238 246 253 257 260 261 261 261 262 262 259 254 250 253 260 265 266 264 262 262 265 271 276 277 271 265 264 268 272 271 265 259 259 262 263 263 259 254 253 254 253 251 248 247 248 256 265 268 269 269 268 265 262 262 264 266 268 269 271 272 273 274 275 276 276 276 274 273 272 271
251 253 255 258 259 256 254 249 239 229 223 221 221 224 231 239 246 253 256 259 260 259 259 262 262 259 253 249 252 261 267 269 266 262 261 266 275 282 283 275 264 258 258 263 264 261 258 261 265 267 265 259 253 250 248 246 246 246 248 255 263 267 267 268 268 269 267 263 261 261 262 264 264 265 267 268 269 270 271 271 272 272 273 273 272
254 252 252 255 259 256 250 246 241 234 230 228 229 232 237 242 248 253 257 260 261 262 263 263 260 257 254 254 258 263 267 269 268 265 265 270 276 282 284 275 263 255 253 257 261 261 260 262 266 267 262 258 256 253 249 247 246 249 254 261 265 264 263 265 267 270 270 266 263 261 260 261 263 264 265 265 266 267 269 269 269 269 270 270 271
254 253 252 255 259 258 254 251 250 250 249 246 244 244 246 248 251 255 258 261 263 264 264 263 262 262 262 263 265 267 269 270 269 268 268 271 274 278 279 273 264 260 261 265 265 260 256 256 260 261 258 259 261 258 254 252 251 253 256 258 259 259 259 261 265 269 271 269 266 264 262 262 264 266 267 266 266 266 267 268 268 268 268 269 269
255 256 259 261 260 256 253 253 254 256 255 253 250 250 250 252 253 255 258 261 263 264 265 265 266 267 268 270 271 273 273 274 273 272 271 271 272 274 275 273 270 267 266 267 266 260 254 253 258 260 259 259 258 255 254 254 255 258 259 257 256 257 261 266 269 271 272 270 268 265 263 262 265 269 269 267 266 265 265 266 266 267 267 268 268
257 260 263 264 261 256 252 252 253 254 255 254 253 252 253 253 255 257 260 263 265 266 267 268 268 269 270 271 273 274 274 275 274 273 272 272 272 271 271 271 271 269 265 263 262 258 251 250 256 260 259 257 256 254 254 254 255 257 260 262 263 262 264 268 271 273 273 271 269 266 262 258 260 265 267 266 265 265 264 264 265 266 266 266 267
260 262 264 263 261 259 259 258 258 257 256 255 256 256 257 257 258 259 260 262 264 266 267 268 268 269 270 270 271 271 272 272 272 272 272 272 272 271 269 267 266 266 263 258 256 253 248 248 254 257 255 254 254 253 253 253 255 258 262 265 266 265 265 269 272 274 273 271 269 266 263 259 256 258 262 263 263 264 264 263 263 264 264 264 264
262 264 264 264 263 263 264 265 265 264 262 262 262 262 262 262 262 263 263 263 264 265 266 267 268 268 269 270 270 270 271 271 270 270 270 270 270 270 269 267 264 263 259 254 252 251 249 250 253 254 253 254 255 256 257 257 259 262 264 265 265 265 267 270 272 273 272 269 267 265 264 262 260 259 262 264 264 264 263 262 263 263 263 262 262
261 263 263 263 263 264 265 265 266 266 266 266 266 266 267 267 267 267 267 267 267 267 267 267 268 268 269 270 270 271 271 270 270 270 270 269 269 267 266 265 263 260 257 254 251 250 249 251 254 256 258 259 259 260 261 262 263 264 264 264 264 265 266 267 268 267 266 265 265 264 264 263 262 262 263 264 265 265 265 264 265 265 265 264 262
261 262 262 262 263 263 263 264 264 266 268 269 269 269 270 270 270 270 270 270 270 270 270 270 269 269 269 269 269 270 269 269 268 269 269 268 268 267 265 264 262 258 255 253 252 253 253 255 258 261 263 263 261 261 261 262 264 265 265 265 265 266 266 266 265 263 263 264 265 266 267 267 266 264 264 264 265 266 266 267 267 267 267 266 265
263 263 264 264 264 264 264 264 265 268 270 270 270 270 271 271 271 271 270 270 270 270 271 271 271 269 268 270 272 271 269 268 268 268 268 267 267 267 266 266 263 258 254 252 253 256 257 258 261 263 263 262 261 260 260 260 261 262 262 264 265 266 265 264 263 262 263 265 267 269 271 271 271 270 269 269 269 269 269 269 268 268 267 267 267
263 263 264 265 265 266 266 267 268 270 270 271 271 272 271 271 269 268 267 267 267 268 270 271 270 269 270 273 274 272 269 268 268 268 268 266 265 263 262 260 257 255 254 254 254 255 257 260 262 263 261 259 258 258 258 258 258 258 259 260 262 263 262 261 260 261 262 265 268 271 274 275 275 274 274 273 273 273 273 273 272 271 270 269 269
265 264 264 264 265 266 266 267 268 269 270 270 271 270 268 266 264 265 265 265 265 266 266 267 267 268 270 272 271 269 268 268 267 265 265 264 263 262 259 257 254 253 254 255 255 256 258 261 262 262 259 256 255 256 256 256 256 257 258 260 261 262 262 261 260 261 263 266 269 274 278 279 278 277 276 275 276 276 276 276 275 274 273 272 272
262 263 264 265 265 265 266 267 267 268 268 268 267 266 264 262 262 264 265 264 264 264 264 264 265 266 267 267 267 267 268 266 264 262 261 260 259 259 258 258 257 256 256 256 257 257 258 259 260 259 257 255 255 254 255 256 257 258 260 262 262 263 264 264 264 265 266 268 272 277 281 283 282 280 278 277 277 277 277 277 276 275 275 274 274
258 260 263 264 264 265 265 266 266 267 267 266 265 264 263 262 263 264 264 264 263 263 263 264 265 266 265 264 265 266 265 263 259 257 258 257 256 256 256 256 257 258 257 256 256 257 257 257 256 257 258 260 259 258 257 257 258 260 262 263 264 265 266 266 267 268 270 271 273 277 282 284 283 282 280 279 279 278 278 278 277 277 276 276 275
258 260 262 263 263 264 265 265 266 266 266 266 265 264 263 263 263 263 263 263 262 262 263 264 265 266 265 265 266 265 263 260 257 255 256 257 258 259 259 257 256 255 253 252 253 256 257 257 257 259 262 263 263 261 260 260 261 261 262 263 264 265 265 266 268 270 271 273 275 279 282 284 284 282 281 280 280 280 279 279 278 278 277 277 276
258 259 260 261 262 263 264 265 266 266 266 266 266 266 266 265 265 265 265 264 264 264 265 265 265 265 265 265 265 263 261 258 256 255 256 258 260 260 261 260 258 256 254 254 255 257 258 259 260 261 263 264 263 262 262 261 260 260 261 262 263 264 265 267 269 271 275 277 279 281 283 284 284 283 282 281 280 280 279 279 278 278 277 276 276
259 260 261 261 262 263 264 264 265 265 266 267 267 268 268 268 268 268 267 267 267 267 266 266 266 266 265 265 264 263 261 259 257 256 257 259 261 261 260 259 259 258 257 257 258 259 260 260 261 262 262 261 260 260 260 259 258 258 259 261 262 264 266 268 272 277 280 282 283 283 283 283 283 283 282 281 280 280 279 279 278 278 277 277 277
260 261 261 262 262 263 263 264 265 265 265 266 266 267 267 267 268 268 268 268 268 268 268 268 268 267 267 266 265 264 263 261 259 258 258 258 259 260 258 258 258 258 258 259 259 259 259 259 259 259 259 259 259 258 257 258 257 258 259 260 262 264 267 272 280 284 284 283 283 283 283 283 283 282 281 281 280 280 279 279 279 278 278 278 277
261 261 262 262 263 263 264 265 266 266 266 266 266 266 266 266 266 266 267 267 267 268 268 268 268 268 268 268 267 266 265 263 261 260 259 259 259 258 257 257 257 257 257 257 256 255 255 255 254 252 253 255 255 254 256 257 257 258 259 261 263 266 272 280 285 286 285 284 284 283 283 282 282 281 281 280 280 279 279 279 279 279 278 277 277
263 263 263 264 264 265 266 267 268 268 269 268 268 268 268 268 267 267 267 266 266 266 266 266 267 267 267 268 267 267 266 265 263 262 260 259 259 257 254 253 253 253 253 252 251 251 251 250 249 247 248 249 248 249 252 256 259 261 262 264 267 273 279 284 285 285 284 284 283 282 282 281 281 281 280 280 280 280 280 279 279 279 278 278 277
264 265 265 266 266 267 268 270 271 271 272 272 272 271 271 271 271 270 269 269 268 267 267 266 266 266 266 266 266 266 265 265 264 263 262 261 260 259 256 252 250 249 250 249 249 250 251 249 248 248 248 249 250 251 253 257 261 263 265 269 273 278 281 282 283 283 283 282 282 282 281 280 279 279 279 279 280 279 279 279 279 279 278 278 278
267 268 269 270 271 272 272 273 274 275 275 274 274 274 273 272 272 271 270 270 269 268 268 267 266 266 265 265 264 264 263 263 263 262 262 262 261 260 258 256 253 251 251 251 252 254 256 255 254 254 253 253 255 257 257 260 263 266 270 273 276 278 279 280 280 281 281 281 280 280 279 278 277 277 277 278 278 279 279 279 278 278 278 278 279
274 274 275 275 276 277 278 279 278 278 277 276 275 274 273 272 271 270 269 269 269 268 268 267 267 266 265 264 264 263 262 261 260 260 259 259 259 259 259 258 257 255 254 254 254 256 259 259 260 260 259 259 261 262 263 265 268 271 273 275 276 276 276 277 278 278 279 279 278 278 277 276 275 275 275 276 277 277 277 277 277 278 278 279 280
275 276 277 278 279 280 280 280 279 278 277 276 275 274 273 272 271 270 269 268 268 268 267 267 267 266 266 265 264 263 262 261 260 259 258 257 256 257 257 257 257 256 256 256 256 256 257 259 261 262 262 263 264 265 266 268 270 271 272 273 273 273 274 275 275 276 276 276 276 275 275 274 274 274 274 275 275 276 276 276 277 278 278 279 280
273 275 276 277 278 278 278 278 277 277 276 276 275 274 274 273 272 271 271 270 269 268 267 266 266 265 265 264 264 263 262 262 261 260 259 257 256 255 255 255 255 255 255 256 256 257 257 258 260 260 261 262 263 264 266 267 268 269 269 270 270 271 271 272 273 273 273 273 273 272 272 272 272 273 274 275 275 275 276 276 277 277 278 279 280
273 274 275 276 276 276 276 276 276 276 275 275 274 273 273 272 272 271 271 270 269 268 268 267 266 265 264 263 262 262 261 260 260 260 259 258 256 255 254 253 253 253 254 255 256 257 258 259 260 260 261 261 262 263 264 265 266 266 267 267 268 268 269 270 270 270 270 270 270 269 269 269 269 270 272 274 275 276 276 277 278 279 280 281 281
273 274 275 275 275 276 276 275 275 275 275 274 274 274 274 273 273 272 272 271 270 269 268 267 266 265 264 263 262 261 260 259 259 258 258 258 257 256 255 253 251 252 254 256 256 256 257 258 259 260 261 262 262 264 265 265 265 265 265 266 266 266 267 267 267 267 267 267 267 267 267 266 267 269 271 273 274 276 277 279 280 281 281 282 284
Height
5778 5778 5779 5779 5779 5778 5777 5776 5777 5778 5779 5780 5781 5782 5782 5782 5783 5784 5785 5786 5786 5786 5786 5786 5786 5786 5785 5786 5786 5787 5787 5788 5788 5788 5788 5787 5787 5787 5786 5786 5786 5786 5786 5786 5786 5786 5786 5786 5786 5786 5786 5786 5786 5786 5787 5788 5788 5789 5790 5791 5791 5792 5792 5792 5793 5793 5794 5795 5795 5795 5795 5795 5796 5797 5797 5798 5798 5798 5798 5798 5799 5799 5800 5800 5800
5776 5776 5777 5777 5777 5777 5776 5775 5776 5776 5777 5779 5780 5780 5781 5781 5782 5783 5784 5785 5785 5785 5785 5785 5784 5784 5784 5784 5785 5785 5786 5786 5786 5786 5786 5786 5785 5785 5785 5784 5784 5784 5784 5784 5784 5784 5784 5785 5785 5785 5785 5785 5785 5785 5785 5786 5786 5787 5788 5788 5789 5790 5790 5791 5791 5791 5792 5793 5793 5793 5793 5794 5794 5794 5795 5795 5796 5796 5796 5797 5797 5797 5797 5797 5797
5774 5774 5774 5774 5775 5775 5775 5775 5775 5776 5776 5778 5778 5779 5780 5780 5781 5782 5783 5783 5783 5783 5783 5783 5782 5782 5782 5782 5783 5784 5784 5784 5785 5785 5784 5784 5784 5784 5783 5783 5782 5782 5782 5782 5782 5782 5783 5783 5783 5784 5784 5784 5784 5783 5783 5784 5784 5785 5786 5786 5787 5788 5789 5789 5789 5790 5790 5791 5791 5792 5792 5792 5792 5792 5792 5793 5793 5794 5794 5795 5795 5795 5795 5795 5796
5772 5772 5772 5773 5773 5773 5774 5774 5775 5775 5776 5776 5777 5777 5778 5778 5779 5780 5781 5781 5781 5781 5781 5781 5780 5780 5780 5781 5781 5782 5783 5784 5783 5783 5783 5783 5782 5782 5782 5782 5781 5781 5780 5780 5780 5781 5781 5781 5782 5782 5782 5782 5782 5782 5782 5782 5782 5783 5784 5784 5785 5785 5786 5787 5787 5788 5789 5789 5790 5790 5791 5791 5790 5790 5790 5790 5791 5792 5792 5793 5793 5793 5793 5793 5794
5770 5770 5770 5771 5771 5772 5772 5773 5773 5774 5774 5774 5775 5775 5775 5776 5777 5778 5778 5779 5779 5779 5779 5779 5779 5778 5778 5779 5780 5781 5782 5782 5782 5782 5782 5781 5781 5781 5781 5780 5780 5779 5779 5779 5779 5779 5779 5779 5780 5780 5780 5781 5781 5780 5780 5780 5780 5781 5781 5782 5783 5783 5784 5785 5785 5786 5786 5788 5788 5788 5789 5789 5788 5788 5788 5788 5789 5789 5790 5790 5791 5791 5791 5791 5791
5769 5768 5769 5769 5770 5770 5771 5771 5772 5772 5772 5772 5773 5773 5774 5775 5776 5776 5777 5777 5777 5777 5777 5777 5777 5777 5777 5778 5778 5779 5780 5781 5781 5780 5780 5779 5779 5779 5779 5779 5779 5778 5778 5777 5777 5777 5777 5777 5777 5778 5778 5779 5779 5778 5778 5778 5778 5779 5779 5780 5781 5781 5781 5782 5783 5783 5784 5785 5786 5786 5786 5786 5786 5786 5786 5786 5787 5787 5788 5788 5788 5789 5789 5789 5789
5767 5767 5768 5768 5768 5769 5769 5769 5770 5770 5770 5771 5772 5772 5774 5774 5775 5775 5775 5775 5775 5776 5776 5776 5776 5776 5776 5777 5777 5778 5778 5779 5779 5779 5778 5778 5778 5778 5777 5777 5777 5777 5776 5776 5775 5775 5775 5775 5775 5775 5776 5776 5776 5776 5776 5776 5776 5777 5777 5778 5778 5779 5779 5780 5780 5781 5781 5782 5782 5783 5784 5784 5784 5784 5784 5784 5785 5785 5785 5786 5786 5787 5787 5787 5787
5766 5766 5766 5766 5766 5767 5767 5768 5768 5769 5770 5771 5771 5772 5773 5773 5773 5773 5773 5773 5773 5773 5774 5774 5775 5775 5775 5776 5776 5776 5777 5776 5776 5776 5776 5776 5776 5776 5776 5775 5775 5774 5774 5774 5774 5773 5773 5773 5773 5773 5773 5774 5774 5774 5774 5774 5774 5775 5775 5775 5776 5776 5777 5778 5778 5778 5779 5779 5780 5780 5781 5781 5781 5782 5782 5782 5783 5783 5783 5783 5784 5785 5785 5785 5785
5764 5764 5764 5765 5764 5765 5765 5766 5767 5768 5769 5769 5770 5771 5771 5771 5771 5771 5770 5770 5770 5771 5771 5772 5773 5774 5774 5774 5774 5774 5774 5774 5774 5774 5774 5774 5774 5774 5774 5774 5773 5772 5772 5772 5772 5771 5771 5771 5771 5771 5771 5771 5771 5772 5772 5772 5772 5772 5772 5773 5773 5774 5774 5775 5776 5776 5776 5776 5777 5777 5778 5778 5778 5779 5780 5780 5781 5781 5781 5781 5781 5782 5782 5783 5783
5761 5762 5762 5762 5762 5762 5763 5765 5766 5767 5767 5768 5768 5768 5768 5768 5767 5767 5767 5767 5768 5769 5770 5770 5771 5771 5771 5771 5771 5772 5772 5772 5772 5772 5772 5772 5772 5772 5772 5772 5772 5771 5770 5770 5769 5769 5769 5769 5769 5769 5769 5769 5769 5770 5770 5770 5770 5770 5770 5770 5771 5771 5772 5772 5773 5773 5774 5773 5773 5774 5774 5775 5776 5776 5777 5778 5778 5779 5779 5779 5779 5779 5780 5780 5780
5759 5759 5760 5760 5760 5760 5761 5762 5764 5764 5765 5766 5766 5765 5765 5764 5764 5764 5764 5765 5766 5767 5768 5768 5769 5769 5769 5769 5769 5770 5770 5770 5770 5770 5770 5770 5770 5770 5770 5770 5770 5770 5769 5768 5767 5767 5766 5766 5766 5767 5767 5767 5767 5768 5768 5768 5768 5768 5768 5768 5769 5769 5769 5770 5770 5771 5771 5771 5770 5771 5771 5772 5773 5773 5774 5775 5776 5776 5776 5776 5776 5777 5777 5778 5778
5757 5757 5758 5758 5759 5758 5759 5760 5761 5763 5763 5763 5763 5762 5760 5759 5759 5760 5761 5763 5764 5764 5765 5765 5766 5767 5768 5768 5767 5768 5768 5768 5768 5768 5768 5768 5768 5768 5768 5768 5768 5767 5767 5766 5766 5765 5765 5764 5765 5765 5765 5765 5766 5766 5766 5766 5766 5766 5767 5767 5767 5767 5767 5768 5768 5768 5768 5768 5768 5768 5769 5769 5770 5770 5771 5772 5773 5774 5774 5774 5774 5774 5774 5775 5775
5755 5755 5755 5756 5756 5756 5757 5758 5760 5761 5762 5762 5760 5757 5755 5756 5758 5759 5759 5761 5762 5762 5763 5764 5765 5766 5766 5766 5765 5765 5765 5765 5766 5766 5766 5765 5766 5766 5766 5766 5765 5765 5765 5764 5764 5763 5763 5763 5763 5763 5763 5764 5764 5764 5764 5765 5765 5765 5765 5765 5765 5765 5766 5766 5766 5766 5766 5766 5766 5766 5766 5767 5767 5768 5768 5769 5770 5771 5771 5771 5771 5771 5771 5772 5771
5752 5752 5753 5753 5753 5753 5753 5755 5757 5759 5760 5759 5754 5751 5753 5757 5759 5759 5759 5759 5760 5761 5761 5762 5763 5764 5763 5763 5762 5762 5762 5763 5763 5763 5763 5764 5764 5764 5764 5763 5763 5762 5763 5763 5762 5762 5762 5762 5762 5762 5762 5762 5763 5763 5763 5763 5763 5763 5764 5764 5764 5764 5764 5764 5764 5764 5764 5764 5764 5764 5764 5764 5765 5765 5766 5766 5767 5767 5768 5768 5768 5768 5768 5768 5768
5748 5749 5750 5750 5751 5751 5750 5751 5753 5755 5757 5754 5748 5748 5754 5757 5757 5756 5755 5756 5758 5759 5759 5760 5760 5760 5760 5760 5759 5759 5759 5760 5761 5761 5761 5761 5762 5762 5762 5761 5761 5760 5761 5761 5760 5760 5760 5760 5761 5761 5761 5762 5762 5762 5762 5762 5762 5762 5762 5762 5762 5762 5762 5762 5762 5762 5762 5762 5762 5762 5762 5762 5763 5763 5763 5764 5764 5765 5765 5765 5765 5765 5765 5765 5765
5745 5746 5747 5747 5748 5748 5748 5748 5749 5751 5752 5747 5745 5750 5754 5754 5752 5752 5753 5754 5755 5756 5756 5757 5757 5757 5757 5757 5757 5757 5756 5757 5758 5758 5759 5759 5759 5759 5760 5759 5759 5759 5759 5759 5759 5759 5759 5759 5759 5759 5760 5761 5761 5761 5761 5761 5760 5760 5760 5760 5760 5760 5760 5760 5760 5760 5760 5761 5761 5761 5761 5761 5761 5761 5761 5761 5762 5762 5763 5763 5763 5763 5763 5762 5762
5742 5742 5742 5743 5744 5744 5746 5748 5747 5748 5746 5743 5747 5751 5749 5747 5748 5750 5751 5751 5751 5752 5753 5754 5754 5755 5755 5755 5755 5755 5754 5755 5756 5756 5756 5756 5756 5757 5757 5757 5757 5757 5757 5757 5757 5757 5757 5757 5758 5758 5759 5759 5760 5760 5760 5759 5759 5759 5759 5759 5759 5759 5759 5759 5759 5759 5759 5759 5759 5759 5759 5760 5760 5760 5759 5759 5760 5760 5760 5761 5761 5761 5760 5760 5760
5738 5738 5738 5739 5741 5742 5744 5745 5745 5746 5743 5742 5747 5748 5743 5743 5746 5748 5747 5746 5748 5750 5751 5751 5752 5752 5753 5753 5753 5753 5753 5753 5753 5753 5753 5753 5753 5754 5754 5755 5755 5755 5755 5755 5756 5756 5756 5756 5756 5757 5757 5758 5758 5758 5758 5758 5758 5757 5757 5757 5757 5757 5757 5757 5757 5757 5757 5757 5757 5757 5757 5758 5758 5758 5758 5758 5758 5758 5758 5758 5758 5758 5758 5758 5758
5734 5734 5734 5736 5739 5740 5740 5741 5743 5743 5741 5741 5744 5743 5739 5740 5745 5746 5743 5743 5747 5748 5748 5749 5750 5750 5751 5750 5750 5750 5750 5751 5751 5751 5751 5751 5751 5751 5752 5752 5753 5753 5753 5754 5754 5754 5754 5754 5754 5755 5755 5755 5756 5756 5756 5756 5756 5756 5755 5755 5755 5754 5754 5754 5754 5755 5755 5755 5755 5755 5755 5756 5756 5756 5756 5756 5756 5756 5756 5757 5757 5757 5757 5756 5756
5731 5731 5732 5733 5735 5736 5737 5737 5739 5740 5739 5738 5739 5739 5737 5738 5741 5742 5741 5742 5745 5746 5746 5747 5747 5748 5748 5748 5748 5748 5749 5749 5749 5749 5749 5749 5749 5749 5749 5750 5750 5750 5751 5751 5752 5752 5752 5752 5752 5752 5752 5753 5753 5753 5754 5754 5754 5754 5754 5753 5753 5752 5752 5752 5752 5752 5753 5753 5753 5753 5753 5753 5754 5754 5754 5754 5754 5754 5755 5755 5755 5755 5755 5755 5755
5727 5729 5729 5730 5730 5731 5732 5732 5734 5736 5736 5736 5736 5736 5736 5736 5738 5739 5739 5741 5742 5743 5744 5744 5745 5746 5746 5746 5747 5747 5747 5748 5748 5748 5747 5747 5747 5747 5747 5748 5748 5748 5748 5749 5749 5750 5750 5750 5750 5750 5750 5750 5751 5751 5751 5751 5752 5752 5752 5752 5751 5751 5750 5750 5750 5750 5751 5751 5751 5751 5751 5751 5751 5752 5752 5752 5752 5752 5752 5752 5752 5752 5752 5752 5752
5724 5725 5726 5726 5726 5727 5728 5728 5729 5731 5733 5733 5733 5733 5733 5734 5735 5736 5737 5738 5739 5740 5741 5742 5743 5743 5744 5745 5745 5745 5746 5746 5746 5746 5746 5746 5746 5746 5746 5746 5746 5746 5745 5746 5747 5747 5747 5748 5748 5748 5748 5749 5749 5749 5749 5749 5749 5749 5749 5749 5749 5749 5749 5749 5748 5748 5749 5749 5749 5749 5749 5749 5749 5750 5750 5750 5750 5750 5750 5750 5750 5750 5750 5750 5750
5721 5722 5722 5722 5723 5723 5724 5725 5726 5728 5729 5730 5730 5730 5730 5731 5732 5733 5734 5735 5736 5737 5738 5739 5740 5741 5742 5742 5743 5743 5743 5744 5744 5744 5744 5744 5744 5744 5744 5744 5744 5744 5743 5743 5744 5745 5745 5745 5746 5746 5746 5746 5747 5747 5747 5747 5747 5747 5747 5746 5747 5747 5747 5747 5747 5747 5747 5747 5747 5747 5748 5748 5748 5747 5748 5748 5748 5748 5748 5747 5748 5747 5747 5747 5747
5718 5719 5719 5719 5720 5721 5722 5723 5724 5725 5726 5727 5727 5728 5728 5728 5729 5730 5731 5732 5733 5734 5735 5736 5737 5738 5739 5740 5740 5740 5740 5741 5741 5742 5742 5742 5742 5742 5743 5742 5742 5742 5741 5741 5741 5742 5742 5743 5743 5744 5744 5744 5744 5744 5744 5744 5745 5745 5745 5744 5744 5744 5744 5744 5745 5745 5745 5745 5745 5745 5745 5746 5746 5745 5745 5745 5745 5745 5745 5745 5745 5745 5745 5745 5745
5716 5717 5717 5717 5718 5718 5719 5720 5721 5722 5723 5724 5725 5726 5726 5726 5727 5727 5728 5729 5730 5731 5732 5733 5734 5735 5736 5736 5737 5737 5737 5738 5738 5739 5740 5740 5740 5740 5740 5740 5739 5739 5739 5739 5738 5739 5739 5740 5740 5741 5741 5741 5741 5741 5742 5742 5742 5742 5742 5742 5742 5742 5742 5742 5742 5742 5742 5742 5743 5743 5743 5743 5743 5743 5743 5743 5742 5742 5742 5743 5743 5742 5742 5742 5742
5714 5715 5715 5715 5715 5716 5717 5719 5720 5721 5722 5722 5723 5724 5724 5725 5725 5725 5726 5727 5727 5729 5730 5730 5731 5731 5732 5733 5733 5733 5734 5734 5735 5736 5736 5737 5737 5737 5737 5737 5737 5737 5737 5737 5736 5736 5737 5737 5737 5737 5737 5738 5738 5738 5738 5739 5739 5739 5739 5739 5739 5739 5739 5739 5739 5739 5739 5740 5740 5740 5740 5740 5740 5740 5740 5740 5740 5740 5739 5739 5739 5739 5739 5739 5738
5712 5712 5712 5713 5713 5714 5715 5716 5717 5718 5719 5720 5721 5721 5722 5723 5723 5724 5724 5724 5725 5726 5726 5727 5728 5728 5729 5729 5729 5730 5730 5731 5731 5732 5732 5733 5733 5734 5734 5734 5734 5734 5734 5734 5734 5734 5734 5734 5733 5734 5734 5734 5734 5734 5735 5735 5736 5736 5736 5736 5736 5736 5736 5736 5736 5736 5737 5737 5737 5738 5738 5738 5738 5737 5737 5737 5737 5736 5736 5736 5736 5736 5735 5735 5735
5709 5709 5709 5710 5710 5711 5711 5712 5714 5715 5716 5717 5717 5718 5719 5720 5720 5721 5721 5722 5722 5723 5723 5724 5724 5725 5725 5725 5725 5726 5726 5727 5727 5728 5728 5729 5729 5730 5730 5730 5730 5731 5731 5731 5730 5731 5731 5730 5730 5730 5731 5731 5731 5731 5731 5731 5732 5733 5733 5733 5733 5733 5733 5733 5733 5734 5734 5734 5734 5735 5735 5735 5735 5734 5734 5734 5733 5733 5733 5733 5732 5732 5732 5732 5731
5705 5706 5706 5706 5707 5707 5708 5709 5710 5711 5712 5713 5713 5714 5715 5716 5717 5717 5718 5718 5718 5719 5719 5720 5720 5720 5720 5721 5721 5721 5721 5722 5723 5724 5724 5724 5725 5726 5726 5726 5726 5726 5727 5727 5726 5726 5727 5727 5727 5727 5727 5727 5728 5728 5728 5728 5729 5729 5729 5729 5729 5730 5729 5730 5730 5730 5730 5730 5730 5731 5731 5731 5731 5729 5729 5729 5729 5729 5729 5729 5729 5729 5729 5728 5727
5702 5702 5703 5703 5703 5704 5704 5705 5707 5707 5708 5709 5709 5710 5711 5711 5712 5713 5713 5714 5714 5714 5714 5715 5715 5715 5715 5715 5716 5716 5716 5717 5717 5718 5719 5719 5720 5720 5721 5721 5721 5721 5722 5722 5722 5722 5722 5723 5723 5723 5723 5723 5723 5724 5724 5725 5725 5725 5725 5725 5726 5726 5726 5726 5726 5726 5726 5726 5726 5726 5726 5726 5726 5725 5725 5725 5725 5725 5725 5725 5724 5725 5725 5724 5723
5699 5699 5699 5700 5700 5701 5701 5702 5702 5703 5704 5704 5705 5705 5706 5706 5707 5708 5708 5709 5709 5709 5709 5710 5710 5710 5710 5710 5710 5710 5710 5711 5712 5713 5713 5714 5714 5714 5715 5715 5716 5716 5716 5717 5717 5717 5717 5718 5718 5718 5718 5718 5718 5719 5720 5720 5720 5721 5721 5721 5721 5721 5721 5721 5721 5721 5720 5720 5720 5720 5720 5721 5721 5721 5721 5720 5720 5720 5720 5719 5719 5719 5719 5719 5719
5694 5695 5695 5696 5696 5696 5697 5697 5697 5697 5698 5698 5699 5699 5700 5700 5701 5702 5702 5703 5703 5704 5704 5704 5704 5704 5704 5704 5704 5704 5704 5705 5705 5706 5707 5707 5708 5708 5709 5710 5710 5711 5711 5712 5712 5712 5712 5713 5713 5713 5713 5713 5714 5714 5715 5715 5715 5716 5716 5716 5716 5716 5716 5716 5716 5715 5715 5715 5715 5715 5715 5716 5716 5716 5716 5714 5714 5714 5714 5714 5714 5714 5713 5713 5713
5690 5690 5691 5691 5691 5691 5692 5692 5692 5692 5692 5692 5693 5693 5693 5693 5694 5695 5695 5696 5696 5697 5697 5698 5698 5698 5698 5698 5698 5698 5698 5698 5698 5699 5700 5700 5701 5702 5703 5703 5704 5705 5705 5706 5707 5707 5707 5707 5707 5707 5708 5708 5709 5709 5709 5710 5710 5710 5710 5710 5711 5710 5710 5710 5710 5710 5710 5710 5710 5710 5710 5710 5710 5711 5710 5709 5708 5708 5708 5708 5708 5708 5707 5707 5707
5684 5685 5685 5685 5685 5686 5686 5686 5686 5686 5686 5686 5687 5687 5687 5687 5687 5688 5688 5688 5688 5689 5689 5690 5691 5691 5691 5691 5691 5691 5691 5692 5692 5692 5693 5694 5695 5696 5698 5699 5699 5699 5699 5701 5702 5702 5701 5701 5701 5702 5702 5703 5703 5703 5704 5705 5705 5705 5705 5705 5705 5705 5705 5705 5705 5705 5705 5705 5706 5706 5705 5705 5705 5705 5704 5704 5703 5703 5702 5702 5702 5701 5701 5701 5701
5678 5679 5679 5679 5679 5680 5680 5680 5680 5680 5680 5680 5680 5681 5681 5681 5680 5680 5681 5681 5681 5681 5682 5683 5684 5684 5685 5685 5685 5685 5685 5685 5685 5685 5686 5687 5688 5690 5693 5694 5694 5693 5693 5694 5695 5695 5694 5695 5695 5696 5697 5697 5697 5698 5698 5699 5699 5700 5700 5700 5700 5700 5700 5700 5700 5700 5701 5701 5701 5701 5701 5700 5700 5699 5698 5698 5697 5697 5696 5695 5695 5695 5694 5694 5694
5672 5672 5672 5672 5673 5673 5673 5673 5673 5673 5673 5673 5674 5674 5674 5674 5673 5673 5674 5674 5675 5675 5676 5677 5678 5677 5677 5678 5678 5679 5679 5679 5678 5678 5679 5680 5681 5683 5685 5686 5687 5686 5686 5687 5688 5688 5688 5689 5689 5690 5691 5691 5692 5693 5693 5693 5694 5694 5694 5694 5695 5695 5695 5695 5695 5695 5696 5696 5696 5696 5695 5695 5694 5693 5692 5692 5691 5690 5689 5688 5688 5687 5687 5687 5686
5666 5665 5665 5665 5665 5666 5666 5666 5666 5666 5666 5667 5667 5667 5667 5667 5667 5667 5668 5668 5668 5669 5670 5671 5672 5671 5672 5672 5672 5673 5673 5673 5672 5672 5672 5673 5674 5675 5676 5677 5678 5679 5679 5680 5681 5681 5682 5683 5683 5684 5684 5685 5686 5687 5687 5688 5688 5688 5689 5689 5689 5689 5690 5690 5690 5690 5690 5690 5690 5690 5689 5689 5688 5687 5686 5685 5684 5683 5682 5682 5681 5680 5680 5680 5679
5659 5658 5658 5658 5658 5658 5658 5658 5658 5658 5659 5659 5660 5660 5660 5660 5660 5661 5661 5661 5662 5663 5663 5664 5665 5665 5666 5666 5667 5667 5667 5667 5666 5666 5666 5667 5668 5668 5669 5671 5672 5672 5672 5673 5674 5674 5675 5676 5677 5677 5678 5679 5680 5680 5681 5681 5682 5682 5682 5683 5683 5683 5684 5684 5685 5685 5685 5685 5684 5684 5683 5683 5682 5681 5680 5679 5678 5677 5676 5675 5675 5674 5674 5673 5673
5652 5652 5651 5651 5651 5651 5651 5651 5651 5651 5651 5652 5652 5653 5653 5653 5653 5653 5654 5654 5655 5656 5656 5657 5658 5658 5658 5659 5660 5660 5661 5661 5661 5660 5660 5661 5662 5662 5663 5665 5665 5666 5666 5667 5667 5668 5669 5670 5671 5671 5672 5672 5673 5673 5674 5674 5675 5675 5676 5676 5676 5677 5677 5678 5678 5679 5679 5678 5678 5677 5677 5676 5676 5675 5674 5673 5672 5671 5670 5669 5668 5668 5667 5667 5666
5645 5645 5645 5644 5644 5644 5644 5644 5644 5644 5644 5644 5645 5645 5645 5645 5645 5645 5645 5646 5647 5647 5648 5649 5649 5650 5650 5651 5651 5652 5653 5654 5654 5654 5654 5654 5655 5656 5657 5658 5659 5659 5660 5660 5661 5662 5663 5663 5664 5665 5665 5666 5666 5666 5667 5668 5668 5669 5669 5670 5670 5671 5671 5672 5672 5672 5672 5672 5671 5671 5670 5670 5669 5669 5668 5667 5666 5665 5664 5663 5662 5661 5661 5660 5659
5638 5638 5637 5637 5637 5637 5636 5636 5636 5636 5636 5636 5637 5637 5637 5637 5637 5636 5635 5636 5637 5637 5638 5639 5639 5640 5641 5641 5642 5643 5644 5645 5646 5646 5647 5647 5648 5649 5650 5651 5651 5652 5652 5653 5654 5655 5656 5656 5657 5658 5658 5659 5659 5659 5660 5661 5662 5662 5663 5664 5664 5665 5665 5666 5666 5666 5666 5665 5665 5664 5664 5663 5663 5662 5662 5661 5660 5659 5658 5657 5656 5655 5654 5654 5653
5629 5629 5629 5629 5629 5628 5628 5628 5627 5628 5628 5628 5629 5629 5628 5628 5628 5626 5626 5626 5627 5627 5628 5629 5629 5630 5631 5632 5633 5633 5634 5635 5636 5637 5638 5639 5640 5641 5642 5643 5643 5644 5645 5646 5647 5647 5648 5649 5650 5650 5651 5651 5652 5653 5653 5654 5655 5656 5657 5658 5658 5659 5659 5659 5659 5659 5659 5658 5658 5657 5657 5656 5656 5655 5655 5654 5653 5652 5651 5650 5649 5649 5648 5647 5646
5621 5621 5621 5621 5620 5620 5620 5619 5619 5619 5619 5619 5619 5620 5620 5619 5619 5618 5617 5618 5618 5618 5619 5619 5619 5620 5621 5621 5623 5624 5625 5626 5627 5628 5629 5630 5631 5632 5633 5634 5635 5636 5637 5638 5639 5640 5640 5641 5642 5642 5643 5644 5645 5645 5646 5647 5649 5650 5651 5651 5652 5652 5652 5652 5652 5652 5651 5651 5651 5650 5650 5650 5649 5648 5648 5647 5646 5645 5644 5644 5643 5642 5641 5640 5639
5613 5612 5612 5613 5612 5612 5612 5611 5610 5609 5609 5609 5609 5609 5610 5610 5609 5608 5608 5609 5609 5610 5610 5610 5610 5611 5611 5612 5613 5614 5615 5616 5617 5618 5620 5621 5622 5623 5625 5626 5627 5628 5629 5630 5632 5632 5633 5633 5634 5635 5636 5637 5637 5638 5639 5641 5642 5643 5644 5644 5645 5645 5645 5645 5645 5645 5644 5644 5644 5644 5643 5643 5642 5641 5640 5640 5639 5639 5638 5637 5636 5635 5634 5633 5632
5605 5605 5604 5604 5604 5604 5604 5603 5602 5601 5600 5599 5598 5598 5599 5599 5599 5598 5598 5598 5599 5599 5600 5600 5601 5601 5602 5602 5603 5604 5605 5606 5607 5609 5610 5612 5613 5615 5616 5618 5619 5620 5621 5622 5624 5625 5625 5626 5627 5628 5628 5629 5630 5631 5633 5634 5635 5635 5636 5637 5638 5638 5638 5638 5638 5638 5637 5637 5637 5637 5637 5636 5635 5634 5633 5633 5632 5632 5631 5630 5629 5628 5627 5626 5625
5597 5597 5596 5596 5596 5596 5596 5595 5594 5592 5591 5590 5588 5587 5588 5588 5587 5586 5586 5586 5587 5588 5588 5589 5590 5591 5591 5592 5593 5594 5595 5596 5598 5599 5600 5602 5603 5605 5607 5609 5610 5611 5612 5613 5615 5616 5616 5617 5618 5618 5619 5621 5622 5624 5625 5626 5627 5628 5629 5630 5631 5631 5631 5631 5631 5630 5630 5630 5630 5630 5630 5630 5629 5628 5627 5626 5625 5625 5624 5623 5622 5621 5621 5620 5619
5588 5588 5588 5587 5587 5586 5586 5585 5584 5582 5580 5579 5578 5577 5576 5576 5576 5575 5574 5574 5574 5575 5576 5577 5577 5578 5579 5581 5582 5583 5584 5586 5587 5589 5591 5592 5593 5595 5597 5599 5601 5602 5603 5604 5605 5607 5607 5607 5608 5609 5611 5613 5615 5616 5617 5619 5620 5621 5622 5623 5623 5623 5623 5624 5624 5624 5623 5623 5623 5623 5623 5623 5622 5621 5620 5619 5619 5618 5618 5617 5616 5615 5615 5614 5613
5580 5579 5579 5578 5578 5577 5575 5574 5573 5571 5570 5568 5567 5566 5565 5565 5565 5564 5564 5564 5564 5564 5565 5565 5566 5566 5567 5568 5569 5571 5572 5574 5576 5578 5580 5582 5584 5585 5587 5589 5591 5593 5594 5595 5596 5597 5598 5599 5600 5601 5603 5605 5607 5608 5610 5611 5613 5614 5614 5615 5615 5616 5616 5617 5617 5617 5617 5617 5617 5616 5616 5616 5615 5615 5614 5613 5612 5612 5612 5611 5610 5610 5609 5609 5608
5572 5571 5571 5570 5568 5567 5566 5564 5563 5561 5560 5558 5557 5556 5555 5554 5553 5553 5553 5553 5554 5554 5554 5555 5555 5555 5556 5556 5557 5558 5560 5561 5563 5565 5568 5570 5573 5575 5578 5580 5582 5583 5585 5585 5587 5588 5590 5591 5592 5593 5595 5597 5598 5600 5602 5604 5605 5606 5607 5607 5608 5608 5609 5609 5610 5610 5610 5610 5610 5610 5609 5609 5608 5608 5608 5607 5607 5606 5606 5606 5605 5605 5604 5603 5602
5565 5564 5562 5561 5559 5558 5556 5555 5553 5551 5550 5548 5547 5545 5544 5544 5543 5542 5542 5542 5542 5542 5543 5544 5544 5544 5545 5545 5545 5546 5548 5549 5551 5553 5555 5558 5561 5564 5567 5571 5572 5573 5575 5576 5578 5580 5581 5582 5583 5584 5586 5589 5590 5592 5595 5597 5597 5598 5599 5600 5601 5601 5602 5602 5603 5603 5603 5603 5603 5603 5603 5602 5602 5602 5602 5602 5601 5601 5601 5600 5600 5599 5599 5598 5597
5557 5556 5554 5552 5551 5549 5548 5546 5544 5542 5541 5539 5537 5536 5535 5534 5534 5533 5532 5532 5531 5531 5532 5532 5532 5532 5533 5533 5534 5535 5536 5538 5540 5542 5543 5546 5549 5553 5556 5559 5562 5565 5566 5568 5570 5571 5572 5573 5574 5575 5577 5579 5581 5584 5587 5588 5589 5590 5591 5592 5593 5594 5594 5595 5596 5596 5596 5596 5596 5596 5596 5596 5597 5597 5596 5596 5596 5596 5595 5595 5595 5594 5593 5592 5591